Waarnemingen

Advertentie
Mijn weer
Bournemouth Airport, Groot Brittannië (3862): temperatuur & dauwpunt: 18.11.2020 03:00:00 - 24.11.2020 03:00:00 (GMT)Bournemouth Airport, Groot Brittannië (3862): temperatuur -20cm & temperatuur -100cm: 18.11.2020 03:00:00 - 24.11.2020 03:00:00 (GMT)Bournemouth Airport, Groot Brittannië (3862): windsnelheid & windstoten: 18.11.2020 03:00:00 - 24.11.2020 03:00:00 (GMT)Bournemouth Airport, Groot Brittannië (3862): windrichting: 18.11.2020 03:00:00 - 24.11.2020 03:00:00 (GMT)Bournemouth Airport, Groot Brittannië (3862): luchtdruk: 18.11.2020 03:00:00 - 24.11.2020 03:00:00 (GMT)Bournemouth Airport, Groot Brittannië (3862): zicht: 18.11.2020 03:00:00 - 24.11.2020 03:00:00 (GMT)Bournemouth Airport, Groot Brittannië (3862): Zonneschijnduur: 18.11.2020 03:00:00 - 24.11.2020 03:00:00 (GMT)Bournemouth Airport, Groot Brittannië (3862): neerslag: 18.11.2020 03:00:00 - 24.11.2020 03:00:00 (GMT)
Datum & Tijd tt [°C] td [°C] tt -20cm [°C] tt -100cm [°C] ff [km/u] ff [kn] fx [km/u] fx [kn] dd ppp [hPa] vv [km] sd [min] rr [mm]
24.11.2020 03:00:00 10,7 9,4 - - 15 8 - - ZZW 1021,7 8 0 -
24.11.2020 02:00:00 11,9 8,2 - - 18 10 - - ZZW 1022,2 40 0 0,0
24.11.2020 01:00:00 12,1 8,7 - - 15 8 - - ZW 1022,9 45 0 0,0
24.11.2020 00:00:00 11,8 9,5 - - 9 5 - - ZZW 1023,5 35 - 0,0
23.11.2020 23:00:00 11,4 9,3 - - 9 5 - - ZZW 1023,8 40 0 0,0
23.11.2020 22:00:00 11,3 9,5 - - 8 4 - - ZW 1024,6 45 0 0,0
23.11.2020 21:00:00 10,4 9,2 - - 8 4 - - Z 1024,7 35 0 0,0
23.11.2020 20:00:00 9,6 8,8 - - 8 4 - - Z 1025,0 30 0 0,0
23.11.2020 19:00:00 8,3 7,5 - - 9 5 - - ZZW 1025,2 20 0 0,0
23.11.2020 18:00:00 9,2 8,2 - - 5 3 - - ZZO 1025,6 10 0 0,0
23.11.2020 17:00:00 9,4 7,9 - - 8 4 - - ZZW 1026,0 10 0 0,0
23.11.2020 16:00:00 9,8 7,8 - - 8 4 - - ZZW 1026,0 10 18 0,0
23.11.2020 15:00:00 10,5 8,6 - - 8 4 - - ZW 1026,2 10 0 0,0
23.11.2020 14:00:00 11,2 8,8 - - 15 8 - - ZZW 1026,7 10 0 0,0
23.11.2020 13:00:00 11,5 8,3 - - 13 7 - - ZZW 1027,1 10 0 0,0
23.11.2020 12:00:00 11,0 9,8 - - 9 5 - - ZZO 1027,7 10 0 0,0
23.11.2020 11:00:00 7,9 7,7 - - 2 1 - - - 1028,6 9 6 0,0
23.11.2020 10:00:00 6,6 6,4 - - 2 1 - - O 1028,6 7 0 0,0
23.11.2020 09:00:00 5,3 5,0 10,7 11,0 2 1 - - N 1028,6 7 0 0,0
23.11.2020 08:00:00 5,1 4,8 - - 2 1 - - - 1028,3 8 0 0,0
23.11.2020 07:00:00 4,8 4,6 - - 0 0 - - N 1027,9 10 0 0,0
23.11.2020 06:00:00 4,5 4,3 - - 2 1 - - NO 1027,9 7 0 0,0
23.11.2020 05:00:00 4,3 4,0 - - 2 1 - - N 1028,0 16 0 0,0
23.11.2020 04:00:00 4,3 3,9 - - 2 1 - - NNW 1028,3 11 0 0,0
23.11.2020 03:00:00 3,5 3,0 - - 2 1 - - W 1028,3 0,2 0 0,0
23.11.2020 02:00:00 5,5 4,8 - - 2 1 - - NO 1028,2 0,7 0 0,0
23.11.2020 01:00:00 7,5 6,7 - - 4 2 - - NW 1028,2 22 0 0,0
23.11.2020 00:00:00 8,3 7,0 - - 0 0 - - N 1028,3 30 - 0,0
22.11.2020 23:00:00 8,4 6,7 - - 5 3 - - W 1028,1 30 0 0,0
22.11.2020 22:00:00 8,7 7,0 - - 2 1 - - WNW 1028,0 35 0 0,0
22.11.2020 21:00:00 9,0 6,5 - - 5 3 - - W 1028,0 30 0 0,0
22.11.2020 20:00:00 9,4 6,6 - - 4 2 - - WZW 1027,7 29 0 0,0
22.11.2020 19:00:00 9,7 6,1 - - 4 2 - - ZW 1027,5 10 0 0,0
22.11.2020 18:00:00 10,3 5,8 - - 15 8 - - NNW 1027,5 10 0 0,0
22.11.2020 17:00:00 10,3 7,1 - - 8 4 - - NW 1027,2 10 0 0,0
22.11.2020 16:00:00 10,7 7,2 - - 4 2 - - W 1026,6 10 0 0,0
22.11.2020 15:00:00 11,7 6,9 - - 2 1 - - - 1026,8 10 0 0,0
22.11.2020 14:00:00 11,8 7,3 - - 5 3 - - - 1026,8 10 0 0,0
22.11.2020 13:00:00 11,9 7,8 - - 8 4 - - NNW 1027,3 10 0 0,0
22.11.2020 12:00:00 11,4 8,5 - - 5 3 - - - 1027,7 10 0 0,0
22.11.2020 11:00:00 11,3 9,7 - - 8 4 - - NW 1027,8 10 0 0,0
22.11.2020 10:00:00 10,7 10,2 - - 4 2 - - - 1027,5 10 0 0,0
22.11.2020 09:00:00 10,2 9,8 10,4 11,0 2 1 - - - 1027,3 10 0 0,0
22.11.2020 08:00:00 9,6 9,1 - - 5 3 - - W 1026,9 10 0 0,0
22.11.2020 07:00:00 10,0 9,5 - - 4 2 - - W 1026,7 35 0 0,0
22.11.2020 06:00:00 10,0 9,3 - - 4 2 - - WNW 1026,4 40 0 0,0
22.11.2020 05:00:00 10,7 10,1 - - 11 6 - - NW 1026,3 30 0 0,2
22.11.2020 04:00:00 11,2 10,5 - - 9 5 - - W 1026,2 5 0 0,2
22.11.2020 03:00:00 11,2 10,3 - - 9 5 - - W 1026,1 4,3 0 0,0
22.11.2020 02:00:00 11,8 10,0 - - 11 6 - - WZW 1026,0 35 0 0,0
22.11.2020 01:00:00 11,9 9,4 - - 15 8 - - WZW 1026,1 40 0 0,0
22.11.2020 00:00:00 11,9 9,4 - - 15 8 - - WZW 1026,1 40 - 0,0
21.11.2020 23:00:00 11,8 9,6 - - 15 8 - - WZW 1026,2 30 0 0,0
21.11.2020 22:00:00 11,6 9,7 - - 11 6 - - WZW 1026,6 30 0 0,0
21.11.2020 21:00:00 11,5 9,6 - - 13 7 - - WZW 1026,8 28 0 0,0
21.11.2020 20:00:00 11,5 9,6 - - 13 7 - - WZW 1027,0 30 0 0,0
21.11.2020 19:00:00 11,1 9,3 - - 22 12 - - WZW 1026,9 45 0 0,0
21.11.2020 18:00:00 11,6 9,6 - - 16 9 - - WZW 1027,0 10 0 0,0
21.11.2020 17:00:00 11,6 9,6 - - 21 11 - - WZW 1026,9 22 0 0,0
21.11.2020 16:00:00 11,9 9,5 - - 18 10 - - WZW 1026,8 26 0 0,0
21.11.2020 15:00:00 12,0 9,2 - - 24 13 - - WZW 1026,9 10 0 0,0
21.11.2020 14:00:00 12,3 9,2 - - 16 9 - - WZW 1027,3 10 0 0,0
21.11.2020 13:00:00 12,2 8,3 - - 26 14 - - W 1027,8 10 0 0,0
21.11.2020 12:00:00 12,1 8,6 - - 18 10 - - WZW 1028,3 30 0 0,0
21.11.2020 11:00:00 12,2 7,6 - - 16 9 - - WZW 1028,4 10 0 0,0
21.11.2020 10:00:00 12,2 7,9 - - 15 8 - - WZW 1028,5 10 0 0,0
21.11.2020 09:00:00 11,9 7,7 10,0 11,2 21 11 - - WZW 1028,4 10 0 0,0
21.11.2020 08:00:00 11,4 7,8 - - 15 8 - - WZW 1028,2 10 0 0,0
21.11.2020 07:00:00 11,5 7,9 - - 18 10 - - WZW 1028,5 10 0 0,0
21.11.2020 06:00:00 11,4 8,1 - - 15 8 - - WZW 1028,6 10 0 0,0
21.11.2020 05:00:00 10,9 8,5 - - 11 6 - - W 1028,6 35 0 0,0
21.11.2020 04:00:00 10,8 8,9 - - 11 6 - - WZW 1028,7 35 0 0,0
21.11.2020 03:00:00 11,1 8,4 - - 16 9 - - ZW 1028,8 40 0 0,0
21.11.2020 02:00:00 10,8 8,0 - - 9 5 - - WZW 1029,4 35 0 0,0
21.11.2020 01:00:00 10,9 7,8 - - 16 9 - - WZW 1029,6 35 0 0,0
21.11.2020 00:00:00 10,7 8,3 - - 15 8 - - W 1030,1 30 - 0,0
20.11.2020 23:00:00 10,8 8,7 - - 9 5 - - WZW 1030,2 26 0 0,0
20.11.2020 22:00:00 10,7 8,8 - - 11 6 - - W 1030,7 25 0 0,0
20.11.2020 21:00:00 10,5 9,6 - - 8 4 - - ZW 1030,9 19 0 0,0
20.11.2020 20:00:00 11,0 10,1 - - 13 7 - - WZW 1031,1 21 0 0,0
20.11.2020 19:00:00 10,7 10,2 - - 13 7 - - ZW 1031,5 3,6 0 0,4
20.11.2020 18:00:00 10,5 9,9 - - 11 6 - - ZW 1031,7 5 0 0,0
20.11.2020 17:00:00 10,4 9,4 - - 15 8 - - WZW 1031,8 4,2 0 0,0
20.11.2020 16:00:00 10,5 9,4 - - 15 8 - - ZW 1031,8 18 0 0,0
20.11.2020 15:00:00 10,4 9,7 - - 11 6 - - ZW 1032,0 9 0 0,4
20.11.2020 14:00:00 10,3 9,7 - - 11 6 - - ZW 1032,6 4,0 0 0,0
20.11.2020 13:00:00 10,3 9,6 - - 11 6 - - ZZW 1033,4 9 0 0,4
20.11.2020 12:00:00 10,3 9,7 - - 8 4 - - ZZW 1034,2 10 0 0,2
20.11.2020 11:00:00 8,7 8,6 - - 5 3 - - Z 1034,6 14 0 0,0
20.11.2020 10:00:00 5,2 5,0 - - 0 0 - - N 1034,8 10 0 0,4
20.11.2020 09:00:00 4,0 3,8 10,0 11,4 2 1 - - - 1034,8 10 0 0,0
20.11.2020 08:00:00 1,4 1,3 - - 2 1 - - NNO 1035,1 9 0 0,0
20.11.2020 07:00:00 0,5 0,3 - - 0 0 - - N 1035,2 10 0 0,0
20.11.2020 06:00:00 0,1 -0,1 - - 4 2 - - NO 1035,3 2,3 0 0,0
20.11.2020 05:00:00 0,2 0,0 - - 0 0 - - N 1035,6 3,7 0 0,0
20.11.2020 04:00:00 -0,4 -0,8 - - 5 3 - - ONO 1035,9 6 0 0,0
20.11.2020 03:00:00 0,1 -0,2 - - 0 0 - - N 1035,9 0,8 0 0,0
20.11.2020 02:00:00 0,4 0,1 - - 4 2 - - N 1036,6 0,5 0 0,0
20.11.2020 01:00:00 1,4 1,1 - - 2 1 - - N 1036,9 8 0 0,0
20.11.2020 00:00:00 1,4 0,9 - - 0 0 - - N 1036,7 0,5 - 0,2
19.11.2020 23:00:00 1,8 1,1 - - 2 1 - - NNO 1036,8 4,0 0 0,0
19.11.2020 22:00:00 2,7 1,8 - - 2 1 - - WNW 1037,2 22 0 0,0
19.11.2020 21:00:00 3,8 2,6 - - 2 1 - - NW 1035,6 26 0 0,0
19.11.2020 20:00:00 5,0 3,6 - - 5 3 - - - 1035,5 10 0 0,0
19.11.2020 19:00:00 5,8 3,9 - - 5 3 - - WZW 1034,6 10 0 0,0
19.11.2020 18:00:00 6,0 4,2 - - 13 7 - - W 1034,6 10 0 0,0
19.11.2020 17:00:00 5,9 3,8 - - 8 4 - - NW 1034,0 30 0 0,0
19.11.2020 16:00:00 7,9 5,9 - - 11 6 - - N 1033,6 45 12 0,2
19.11.2020 15:00:00 9,6 3,6 - - 16 9 - - NNW 1031,9 10 6 0,0
19.11.2020 14:00:00 10,9 4,1 - - 21 11 48 26 NNW 1030,6 10 60 0,0
19.11.2020 13:00:00 10,9 4,9 - - 34 18 55 30 NW 1030,7 10 60 0,0
19.11.2020 12:00:00 11,3 5,9 - - 35 19 54 29 NW 1029,6 10 30 0,0
19.11.2020 11:00:00 10,7 5,0 - - 31 17 48 26 WNW 1028,5 45 54 0,0
19.11.2020 10:00:00 10,3 4,7 - - 31 17 54 29 WNW 1027,2 10 60 0,0
19.11.2020 09:00:00 9,2 5,4 11,0 11,5 29 16 55 30 WNW 1025,9 10 18 0,0
19.11.2020 08:00:00 9,3 4,2 - - 31 17 52 28 WNW 1024,6 10 0 0,0
19.11.2020 07:00:00 9,4 4,4 - - 26 14 - - W 1023,0 10 0 0,0
19.11.2020 06:00:00 9,0 4,2 - - 28 15 - - W 1022,3 10 0 0,0
19.11.2020 05:00:00 9,0 4,2 - - 26 14 - - W 1021,9 29 0 0,0
19.11.2020 04:00:00 9,4 5,4 - - 24 13 46 25 W 1020,8 24 0 0,0
19.11.2020 03:00:00 9,6 5,6 - - 24 13 - - W 1020,4 23 0 0,0
19.11.2020 02:00:00 9,7 5,4 - - 21 11 - - W 1020,1 22 0 0,0
19.11.2020 01:00:00 9,3 5,3 - - 21 11 - - WZW 1020,2 23 0 0,0
19.11.2020 00:00:00 8,4 4,5 - - 15 8 - - WZW 1020,4 22 - 0,0
18.11.2020 23:00:00 8,3 4,5 - - 16 9 - - W 1020,1 24 0 0,0
18.11.2020 22:00:00 8,5 4,5 - - 16 9 - - WZW 1019,7 25 0 0,0
18.11.2020 21:00:00 8,2 4,3 - - 15 8 - - WZW 1019,1 23 0 0,0
18.11.2020 20:00:00 8,5 4,6 - - 16 9 - - W 1018,8 10 0 0,0
18.11.2020 19:00:00 9,3 5,6 - - 21 11 - - W 1018,2 10 0 0,0
18.11.2020 18:00:00 10,6 6,6 - - 24 13 - - W 1017,0 10 0 0,0
18.11.2020 17:00:00 11,2 8,8 - - 21 11 - - W 1015,7 10 0 0,0
18.11.2020 16:00:00 11,8 9,8 - - 28 15 54 29 WNW 1014,6 10 0 0,0
18.11.2020 15:00:00 14,3 13,8 - - 24 13 50 27 ZW 1013,3 2,0 0 0,6
18.11.2020 14:00:00 14,1 13,7 - - 24 13 - - ZZW 1013,3 2,0 0 0,4
18.11.2020 13:00:00 13,4 12,9 - - 26 14 - - ZZW 1013,7 1,7 0 0,8
18.11.2020 12:00:00 12,9 12,0 - - 24 13 - - ZZW 1014,4 2,0 0 0,6
18.11.2020 11:00:00 13,2 10,8 - - 26 14 - - ZZW 1015,4 2,0 0 0,4
18.11.2020 10:00:00 13,7 10,9 - - 22 12 - - Z 1015,9 20 0 0,0
18.11.2020 09:00:00 13,1 11,1 11,4 11,4 15 8 - - Z 1016,3 10 0 0,0
18.11.2020 08:00:00 13,2 10,8 - - 16 9 - - Z 1016,7 10 0 0,0
18.11.2020 07:00:00 12,8 10,8 - - 18 10 - - Z 1017,1 16 0 0,0
18.11.2020 06:00:00 12,5 10,8 - - 21 11 - - Z 1017,6 15 0 0,0
18.11.2020 05:00:00 12,6 10,5 - - 21 11 - - Z 1018,0 17 0 0,0
18.11.2020 04:00:00 12,6 10,6 - - 22 12 - - Z 1018,4 16 0 0,0
18.11.2020 03:00:00 13,0 10,8 - - 24 13 - - Z 1019,0 16 0 0,0

tt = temperatuur
td = dauwpunt
tt -20cm = temperatuur -20cm
tt -100cm = temperatuur -100cm
ff = windsnelheid
fx = windstoten
dd = windrichting
ppp = luchtdruk
vv = zicht
sd = Zonneschijnduur
rr = neerslag

Weerstations in de omgeving